Weather History for Branson West Muni - Emerson F, MO

Change the Weather History Date:

Monday, May 12, 2014

  Actual Average (KHRO) Record (KHRO)
Temperature  
Mean Temperature 70 °F 65 °F  
Max Temperature 84 °F 75 °F 91 °F (1911)
Min Temperature 55 °F 55 °F 35 °F (1945)
Degree Days  
Heating Degree Days 0 3  
Month to date heating degree days 43  
Since 1 July heating degree days 3964  
Cooling Degree Days 4 3  
Month to date cooling degree days 26  
Year to date cooling degree days 63  
Growing Degree Days 20 (Base 50)    
Moisture  
Dew Point 65 °F    
Average Humidity 80    
Maximum Humidity 100    
Minimum Humidity 54    
Precipitation  
Precipitation 0.71 in 0.16 in 2.05 in (1953)
Month to date precipitation 1.97  
Year to date precipitation 15.28  
Snow  
Snow 0.00 in 0.00 in - ()
Month to date snowfall 0.0  
Since 1 July snowfall 11.5  
Snow Depth -    
Sea Level Pressure  
Sea Level Pressure 29.90 in    
Wind  
Wind Speed 8 mph (South)    
Max Wind Speed 20 mph    
Max Gust Speed 28 mph    
Visibility 8 miles    
Events Rain , Thunderstorm    
T = Trace of Precipitation, MM = Missing Value Source: NWS Daily Summary

Daily Weather History Graph

Daily Weather History Graph

Search for Another Location

Airport:

Trip Planner

Search our weather history database for the weather conditions in past years. The results will help you decide how hot, cold, wet, or windy it might be!

Date:

Astronomy

May. 12, 2014 Rise Set
Actual Time 6:08 AM CDT 8:11 PM CDT
Civil Twilight 5:40 AM CDT 8:40 PM CDT
Nautical Twilight 5:05 AM CDT 9:15 PM CDT
Astronomical Twilight 4:27 AM CDT 9:53 PM CDT
Moon 6:13 PM CDT (5/12) 4:44 AM CDT (5/12)
Length of Visible Light 15h 00m
Length of Day
14h 02m
Waxing Gibbous, 95% of the Moon is Illuminated
May 12
Waxing Gibbous
May 14
Full
May 21
Last Quarter
May 28
New
Jun 5
First Quarter

Hourly Weather History & Observations

Time (CDT) Temp. Heat Index Dew Point Humidity Pressure Visibility Wind Dir Wind Speed Gust Speed Precip Events Conditions
12:15 AM 75.2 °F - 66.2 °F 73% 29.85 in 10.0 mi SSE 8.1 mph - N/A   Overcast
12:55 AM 75.2 °F - 66.2 °F 73% 29.84 in 10.0 mi South 11.5 mph 18.4 mph N/A   Scattered Clouds
1:15 AM 73.4 °F - 66.2 °F 78% 29.84 in 10.0 mi SSE 10.4 mph 19.6 mph N/A   Partly Cloudy
1:35 AM 73.4 °F - 66.2 °F 78% 29.84 in 10.0 mi South 8.1 mph - N/A   Scattered Clouds
1:55 AM 73.4 °F - 66.2 °F 78% 29.84 in 10.0 mi SSE 6.9 mph - N/A   Scattered Clouds
2:15 AM 73.4 °F - 66.2 °F 78% 29.83 in 10.0 mi SSE 8.1 mph - N/A   Scattered Clouds
2:35 AM 73.4 °F - 66.2 °F 78% 29.82 in 10.0 mi SSE 10.4 mph 16.1 mph N/A   Overcast
2:55 AM 73.4 °F - 66.2 °F 78% 29.82 in 10.0 mi SE 4.6 mph - N/A   Mostly Cloudy
3:15 AM 73.4 °F - 66.2 °F 78% 29.83 in 10.0 mi SE 6.9 mph 17.3 mph N/A   Mostly Cloudy
3:35 AM 71.6 °F - 66.2 °F 83% 29.83 in 10.0 mi SE 6.9 mph - N/A   Overcast
3:55 AM 71.6 °F - 66.2 °F 83% 29.83 in 10.0 mi SE 9.2 mph 16.1 mph N/A   Partly Cloudy
4:15 AM 71.6 °F - 66.2 °F 83% 29.83 in 10.0 mi SE 8.1 mph - N/A   Mostly Cloudy
4:35 AM 71.6 °F - 66.2 °F 83% 29.84 in 10.0 mi SE 5.8 mph - N/A   Scattered Clouds
4:55 AM 71.6 °F - 66.2 °F 83% 29.85 in 10.0 mi ESE 5.8 mph - N/A   Mostly Cloudy
5:15 AM 69.8 °F - 66.2 °F 88% 29.85 in 10.0 mi ESE 6.9 mph - N/A   Overcast
5:35 AM 69.8 °F - 66.2 °F 88% 29.86 in 10.0 mi SE 8.1 mph - N/A   Overcast
5:55 AM 69.8 °F - 66.2 °F 88% 29.86 in 10.0 mi SE 6.9 mph - N/A   Overcast
6:15 AM 69.8 °F - 66.2 °F 88% 29.87 in 10.0 mi SE 6.9 mph - N/A   Overcast
6:35 AM 71.6 °F - 66.2 °F 83% 29.88 in 10.0 mi SSE 3.5 mph - N/A   Overcast
6:55 AM 71.6 °F - 66.2 °F 83% 29.90 in 10.0 mi Calm Calm - N/A   Overcast
7:15 AM 71.6 °F - 66.2 °F 83% 29.90 in 10.0 mi SSE 4.6 mph - N/A   Overcast
7:35 AM 71.6 °F - 66.2 °F 83% 29.91 in 10.0 mi South 6.9 mph - N/A   Overcast
7:55 AM 73.4 °F - 66.2 °F 78% 29.91 in 10.0 mi South 8.1 mph - N/A   Overcast
8:15 AM 73.4 °F - 66.2 °F 78% 29.92 in 10.0 mi South 9.2 mph - N/A   Mostly Cloudy
8:35 AM 75.2 °F - 66.2 °F 73% 29.92 in 10.0 mi South 5.8 mph - N/A   Overcast
8:55 AM 75.2 °F - 68.0 °F 78% 29.92 in 10.0 mi South 6.9 mph - N/A   Overcast
9:15 AM 77.0 °F - 68.0 °F 74% 29.92 in 10.0 mi South 10.4 mph 16.1 mph N/A   Mostly Cloudy
9:35 AM 77.0 °F - 68.0 °F 74% 29.93 in 10.0 mi SSE 9.2 mph 18.4 mph N/A   Overcast
9:55 AM 78.8 °F - 68.0 °F 69% 29.93 in 10.0 mi SSW 9.2 mph 24.2 mph N/A   Mostly Cloudy
10:15 AM 77.0 °F - 68.0 °F 74% 29.93 in 10.0 mi South 8.1 mph - N/A   Mostly Cloudy
10:35 AM 80.6 °F 83.2 °F 68.0 °F 65% 29.94 in 10.0 mi South 9.2 mph 19.6 mph N/A   Mostly Cloudy
10:55 AM 77.0 °F - 66.2 °F 69% 29.94 in 10.0 mi SW 13.8 mph 18.4 mph N/A   Mostly Cloudy
11:35 AM 82.4 °F 84.6 °F 66.2 °F 58% 29.93 in 10.0 mi South 10.4 mph 25.3 mph N/A   Scattered Clouds
11:55 AM 82.4 °F 84.6 °F 66.2 °F 58% 29.93 in 10.0 mi South 11.5 mph 20.7 mph N/A   Clear
12:15 PM 82.4 °F 84.6 °F 66.2 °F 58% 29.92 in 10.0 mi South 10.4 mph 26.5 mph N/A   Clear
12:55 PM 82.4 °F 84.6 °F 66.2 °F 58% 29.90 in 10.0 mi South 12.7 mph 21.9 mph N/A   Partly Cloudy
1:15 PM 82.4 °F 84.6 °F 66.2 °F 58% 29.90 in 10.0 mi SW 13.8 mph 24.2 mph N/A   Scattered Clouds
1:35 PM 84.2 °F 86.6 °F 66.2 °F 55% 29.90 in 10.0 mi SSW 11.5 mph 17.3 mph N/A   Scattered Clouds
2:55 PM 82.4 °F 84.6 °F 66.2 °F 58% 29.87 in 10.0 mi SSE 9.2 mph 17.3 mph N/A   Mostly Cloudy
3:15 PM 84.2 °F 86.6 °F 66.2 °F 55% 29.85 in 10.0 mi SSE 10.4 mph 17.3 mph N/A   Mostly Cloudy
3:35 PM 84.2 °F 86.6 °F 66.2 °F 55% 29.84 in 10.0 mi SE 8.1 mph 20.7 mph N/A   Scattered Clouds
3:55 PM 82.4 °F 83.9 °F 64.4 °F 54% 29.84 in 10.0 mi South 15.0 mph 26.5 mph N/A   Partly Cloudy
4:15 PM 82.4 °F 83.9 °F 64.4 °F 54% 29.83 in 10.0 mi South 9.2 mph 27.6 mph N/A Thunderstorm Clear
4:35 PM 82.4 °F 84.6 °F 66.2 °F 58% 29.85 in 10.0 mi SSE 11.5 mph 16.1 mph N/A Thunderstorm Partly Cloudy
4:55 PM 80.6 °F 82.7 °F 66.2 °F 61% 29.84 in 10.0 mi SSE 11.5 mph 21.9 mph N/A   Mostly Cloudy
5:15 PM 77.0 °F - 64.4 °F 65% 29.87 in 10.0 mi SSW 6.9 mph - N/A Thunderstorm Mostly Cloudy
5:35 PM 69.8 °F - 62.6 °F 78% 29.89 in 7.0 mi West 19.6 mph 27.6 mph N/A Rain , Thunderstorm Light Thunderstorms and Rain
5:55 PM 64.4 °F - 62.6 °F 94% 29.91 in 0.2 mi WNW 6.9 mph 23.0 mph 0.40 in Rain , Thunderstorm Heavy Thunderstorms and Rain
6:15 PM 64.4 °F - 62.6 °F 94% 29.89 in 2.5 mi NW 6.9 mph - 0.02 in Rain , Thunderstorm Light Thunderstorms and Rain
6:35 PM 64.4 °F - 62.6 °F 94% 29.91 in 5.0 mi WSW 5.8 mph - 0.02 in Rain , Thunderstorm Light Rain
6:55 PM 64.4 °F - 64.4 °F 100% 29.95 in 1.8 mi South 3.5 mph - 0.04 in Rain , Thunderstorm Light Rain
7:15 PM 64.4 °F - 64.4 °F 100% 29.93 in 1.5 mi Calm Calm - 0.03 in Rain Rain
7:35 PM 64.4 °F - 64.4 °F 100% 29.93 in 0.8 mi SSE 3.5 mph - 0.05 in Rain , Thunderstorm Light Rain
7:55 PM 64.4 °F - 64.4 °F 100% 29.93 in 0.8 mi Calm Calm - 0.11 in Rain Rain
8:15 PM 64.4 °F - 64.4 °F 100% 29.93 in 7.0 mi West 3.5 mph - N/A Rain Light Rain
8:35 PM 64.4 °F - 64.4 °F 100% 29.92 in 10.0 mi NW 4.6 mph - N/A   Overcast
8:55 PM 64.4 °F - 64.4 °F 100% 29.95 in 1.2 mi WSW 5.8 mph - N/A Rain Light Rain
9:15 PM 64.4 °F - 64.4 °F 100% 29.95 in 2.5 mi Calm Calm - 0.01 in Rain , Thunderstorm Light Rain
9:35 PM 64.4 °F - 64.4 °F 100% 29.95 in 0.5 mi Calm Calm - 0.01 in Rain Light Rain
9:55 PM 64.4 °F - 64.4 °F 100% 29.95 in 1.0 mi Calm Calm - 0.02 in Rain Light Rain
10:15 PM 59.0 °F - 59.0 °F 100% 29.95 in 2.0 mi NNW 12.7 mph 23.0 mph 0.06 in Rain Rain
10:35 PM 57.2 °F - 57.2 °F 100% 29.92 in 2.5 mi East 8.1 mph - 0.09 in   Overcast
10:55 PM 57.2 °F - 57.2 °F 100% 29.98 in 5.0 mi NNW 11.5 mph - 0.10 in Rain Light Rain
11:15 PM 57.2 °F - 57.2 °F 100% 30.01 in 5.0 mi West 13.8 mph 24.2 mph 0.02 in Rain Light Rain
11:35 PM 55.4 °F - 55.4 °F 100% 30.02 in 1.0 mi WNW 8.1 mph 18.4 mph 0.03 in Rain Light Rain
11:55 PM 55.4 °F - 55.4 °F 100% 30.02 in 3.0 mi West 6.9 mph - 0.04 in Rain Light Rain